CW8593 Gava ES current weather conditions

sailwx.info

Wind from 169

Air temperature 21.1° C
Dewpoint 15.6° C

Last reported at 2017-Sep-26 19:07 UTC.
Time now 2017-Sep-26 20:01 UTC

Location: N 41°18' E 001°60'.
View on Google Maps.

See reports from other nearby stations

  
Tides and Currents Weather Stations Pressure Air Temp Water Temp Dewpoint Dewpoint Depression Visibility Wind Speed Wind Dir Waves Ship Positions
date/time (UTC)wind fromknots sea level pressurealtimeterstation pressurevisibilityair tempwater tempwave heightnotes
2017-Sep-26 19:07 169 21.1
2017-Sep-26 18:58 169 21.1
2017-Sep-26 18:49 169 21.1
2017-Sep-26 18:40 169 21.1
2017-Sep-26 18:31 169 21.1
2017-Sep-26 18:22 169 0 gusting 3 21.1
2017-Sep-26 18:13 168 1 gusting 5 21.1
2017-Sep-26 18:04 177 1 gusting 5 21.7
2017-Sep-26 17:55 167 1 gusting 4 21.7
2017-Sep-26 17:46 164 1 gusting 5 21.7
2017-Sep-26 17:37 168 1 gusting 5 21.7
2017-Sep-26 17:28 160 1 gusting 6 21.7
2017-Sep-26 17:19 176 2 gusting 6 21.7
2017-Sep-26 17:10 169 1 gusting 6 21.7
2017-Sep-26 17:01 167 2 gusting 6 21.7
2017-Sep-26 16:52 191 3 gusting 7 21.7
2017-Sep-26 16:43 170 3 gusting 8 21.7
2017-Sep-26 16:34 185 3 gusting 9 22.2
2017-Sep-26 16:25 197 4 gusting 6 22.2
2017-Sep-26 16:16 191 4 gusting 8 22.2
2017-Sep-26 16:07 223 5 gusting 13 22.2
2017-Sep-26 15:58 222 6 gusting 12 22.2
2017-Sep-26 15:49 218 5 gusting 13 22.8
2017-Sep-26 15:40 217 5 gusting 12 22.8
2017-Sep-26 15:31 220 6 gusting 13 23.3
2017-Sep-26 15:22 227 5 gusting 14 23.3
2017-Sep-26 15:13 241 6 gusting 13 23.3
2017-Sep-26 15:04 222 6 gusting 13 22.8
2017-Sep-26 14:55 219 5 gusting 13 22.8
2017-Sep-26 14:46 221 5 gusting 12 23.3
2017-Sep-26 14:37 223 4 gusting 8 23.3
2017-Sep-26 14:28 225 5 gusting 13 23.3
2017-Sep-26 14:19 212 6 gusting 15 23.3
2017-Sep-26 14:10 211 6 gusting 13 22.8
2017-Sep-26 14:01 213 6 gusting 12 23.3
2017-Sep-26 13:52 221 6 gusting 11 23.9
2017-Sep-26 13:43 214 5 gusting 15 23.3
2017-Sep-26 13:34 227 5 gusting 11 23.3
2017-Sep-26 13:25 214 6 gusting 13 23.9
2017-Sep-26 13:16 206 6 gusting 15 23.3
2017-Sep-26 13:07 206 6 gusting 13 22.8
2017-Sep-26 12:58 218 6 gusting 12 23.3
2017-Sep-26 12:49 220 6 gusting 12 23.3
2017-Sep-26 12:40 217 6 gusting 12 23.3
2017-Sep-26 12:31 220 6 gusting 15 23.3
2017-Sep-26 12:22 200 6 gusting 12 23.3
2017-Sep-26 12:13 204 6 gusting 14 23.9
2017-Sep-26 12:04 220 6 gusting 13 23.3
2017-Sep-26 11:55 207 6 gusting 13 23.3
2017-Sep-26 11:46 203 6 gusting 12 23.3
2017-Sep-26 11:37 203 5 gusting 13 23.9
2017-Sep-26 11:28 184 5 gusting 10 23.9
2017-Sep-26 11:19 204 4 gusting 9 23.9
2017-Sep-26 11:10 209 5 gusting 11 23.9
2017-Sep-26 11:01 207 5 gusting 11 23.3
2017-Sep-26 10:52 212 5 gusting 12 23.9
2017-Sep-26 10:43 193 4 gusting 9 23.3
2017-Sep-26 10:34 212 4 gusting 7 23.3
2017-Sep-26 10:25 156 4 gusting 6 23.3
2017-Sep-26 10:16 149 3 gusting 7 22.8
2017-Sep-26 10:07 129 2 gusting 6 22.8
2017-Sep-26 09:58 125 2 gusting 6 22.8
2017-Sep-26 09:49 124 3 gusting 8 22.8
2017-Sep-26 09:40 131 2 gusting 7 22.8
2017-Sep-26 09:31 120 1 gusting 6 22.8
2017-Sep-26 09:22 126 3 gusting 6 22.2
2017-Sep-26 09:13 130 3 gusting 6 22.2
2017-Sep-26 09:04 132 2 gusting 6 22.8
2017-Sep-26 08:55 135 2 gusting 6 22.8
2017-Sep-26 08:46 115 1 gusting 6 22.2
2017-Sep-26 08:37 097 0 gusting 6 22.8
2017-Sep-26 08:28 094 1 gusting 6 22.8
2017-Sep-26 08:19 050 0 gusting 6 22.8
2017-Sep-26 08:10 020 0 gusting 2 22.8
2017-Sep-26 08:01 350 0 gusting 3 22.2
2017-Sep-26 07:52 348 1 gusting 3 21.7
2017-Sep-26 07:43 345 2 gusting 4 21.1
2017-Sep-26 07:34 347 2 gusting 5 21.1
2017-Sep-26 07:25 007 1 gusting 4 20.6
2017-Sep-26 07:16 040 1 gusting 4 20.6
2017-Sep-26 07:07 059 0 gusting 5 20.6
2017-Sep-26 06:58 092 0 gusting 4 20.6
2017-Sep-26 06:49 077 0 gusting 2 20.6
2017-Sep-26 06:40 322 0 gusting 3 18.9
2017-Sep-26 06:31 325 0 gusting 4 18.9
2017-Sep-26 06:22 317 0 gusting 4 18.9
2017-Sep-26 06:13 293 0 gusting 2 18.9
2017-Sep-26 06:04 289 18.9
2017-Sep-26 05:55 289 18.9
2017-Sep-26 05:46 289 18.9
2017-Sep-26 05:37 289 0 gusting 2 18.9
2017-Sep-26 05:28 289 1 gusting 2 18.9
2017-Sep-26 05:19 289 1 gusting 3 18.9
2017-Sep-26 05:10 289 1 gusting 3 18.9
2017-Sep-26 05:01 290 0 gusting 3 18.9
2017-Sep-26 04:52 289 2 gusting 4 18.9
2017-Sep-26 04:43 306 1 gusting 5 18.3
2017-Sep-26 04:34 310 0 gusting 3 18.3
2017-Sep-26 04:25 310 1 gusting 2 18.3
2017-Sep-26 04:16 310 1 gusting 2 18.3
2017-Sep-26 04:07 311 0 gusting 3 18.3
2017-Sep-26 03:58 310 1 gusting 3 18.3
2017-Sep-26 03:49 310 0 gusting 3 18.3
2017-Sep-26 03:40 310 0 gusting 2 18.3
2017-Sep-26 03:31 310 1 gusting 2 18.3
2017-Sep-26 03:22 315 1 gusting 5 18.3
2017-Sep-26 03:13 327 0 gusting 2 18.3
2017-Sep-26 03:04 327 2 gusting 3 18.3
2017-Sep-26 02:55 327 1 gusting 3 17.8
2017-Sep-26 02:46 327 0 gusting 3 17.2
2017-Sep-26 02:37 327 17.8
2017-Sep-26 02:28 327 17.8
2017-Sep-26 02:19 327 17.8
2017-Sep-26 02:10 327 0 gusting 0 17.8
2017-Sep-26 02:01 327 17.8
2017-Sep-26 01:52 327 17.8
2017-Sep-26 01:43 17.8
2017-Sep-26 01:34 17.8
2017-Sep-26 01:25 327 0 gusting 2 17.8
2017-Sep-26 01:16 327 0 gusting 2 17.8
2017-Sep-26 01:07 327 18.3
2017-Sep-26 00:58 18.9
2017-Sep-26 00:49 327 0 gusting 0 18.9
2017-Sep-26 00:40 327 1 gusting 5 18.9
2017-Sep-26 00:31 334 0 gusting 5 18.9
2017-Sep-26 00:22 337 0 gusting 3 18.9
2017-Sep-26 00:13 337 1 gusting 3 18.9
2017-Sep-26 00:04 317 2 gusting 5 19.4
2017-Sep-25 23:55 321 1 gusting 5 19.4
2017-Sep-25 23:45 320 0 gusting 4 19.4
2017-Sep-25 23:37 317 1 gusting 3 19.4
2017-Sep-25 23:28 323 3 gusting 4 19.4
2017-Sep-25 23:18 317 3 gusting 6 19.4
2017-Sep-25 23:09 313 2 gusting 6 19.4
2017-Sep-25 23:01 331 2 gusting 5 19.4
2017-Sep-25 22:52 327 3 gusting 6 19.4
2017-Sep-25 22:42 315 3 gusting 6 19.4
2017-Sep-25 22:33 315 5 gusting 8 18.9
2017-Sep-25 22:24 309 5 gusting 7 18.9
2017-Sep-25 22:15 308 5 gusting 8 18.9
2017-Sep-25 22:06 304 2 gusting 7 18.9
2017-Sep-25 21:57 318 1 gusting 4 18.9
2017-Sep-25 21:48 310 5 gusting 9 18.9
2017-Sep-25 21:39 306 6 gusting 11 18.9
2017-Sep-25 21:30 306 5 gusting 8 18.9
2017-Sep-25 21:21 310 5 gusting 7 18.9
2017-Sep-25 21:12 311 4 gusting 8 18.9
2017-Sep-25 21:04 329 4 gusting 9 19.4
2017-Sep-25 20:54 317 3 gusting 9 19.4
2017-Sep-25 20:45 332 2 gusting 5 19.4
2017-Sep-25 20:36 342 2 gusting 4 20.0
2017-Sep-25 20:27 353 2 gusting 6 20.0
2017-Sep-25 20:18 344 3 gusting 6 20.0
2017-Sep-25 20:09 344 2 gusting 6 19.4
2017-Sep-25 20:00 348 2 gusting 6 19.4
2017-Sep-25 19:51 336 1 gusting 5 19.4
2017-Sep-25 19:42 322 1 gusting 3 19.4
2017-Sep-25 19:33 321 2 gusting 3 19.4
2017-Sep-25 19:24 323 2 gusting 4 20.6
2017-Sep-25 19:15 014 3 gusting 6 20.6
2017-Sep-25 19:06 102 4 gusting 7 21.1
2017-Sep-25 18:57 091 6 gusting 11 20.6
2017-Sep-25 18:48 075 5 gusting 13 22.2
2017-Sep-25 18:39 065 6 gusting 12 22.8
2017-Sep-25 18:30 085 6 gusting 12 22.8
2017-Sep-25 18:21 080 6 gusting 13 22.8
2017-Sep-25 18:12 068 7 gusting 12 22.8
2017-Sep-25 18:03 067 6 gusting 15 22.8
2017-Sep-25 17:54 084 5 gusting 12 22.8
2017-Sep-25 17:45 092 6 gusting 9 22.8
2017-Sep-25 17:36 090 6 gusting 16 22.8
2017-Sep-25 17:27 081 6 gusting 14 22.8
2017-Sep-25 17:18 097 6 gusting 11 22.8
2017-Sep-25 17:09 085 6 gusting 15 22.8
2017-Sep-25 17:00 080 4 gusting 12 22.8
2017-Sep-25 16:51 099 6 gusting 12 22.8
2017-Sep-25 16:42 078 6 gusting 13 22.8
2017-Sep-25 16:33 096 6 gusting 15 22.8
2017-Sep-25 16:24 083 7 gusting 14 23.3
2017-Sep-25 16:15 094 8 gusting 14 23.3
2017-Sep-25 16:06 098 7 gusting 15 23.3
2017-Sep-25 15:57 100 6 gusting 15 23.3
2017-Sep-25 15:48 090 8 gusting 14 23.3
2017-Sep-25 15:39 090 7 gusting 15 23.3
2017-Sep-25 15:30 084 8 gusting 13 23.3
2017-Sep-25 15:21 083 7 gusting 15 23.3
2017-Sep-25 15:12 076 8 gusting 14 23.3
2017-Sep-25 15:03 086 7 gusting 18 23.3
2017-Sep-25 14:54 097 7 gusting 18 23.3
2017-Sep-25 14:45 093 9 gusting 14 23.9
2017-Sep-25 14:36 093 9 gusting 19 23.9
2017-Sep-25 14:27 093 9 gusting 19 23.9
2017-Sep-25 14:18 092 7 gusting 14 24.4
2017-Sep-25 14:09 080 6 gusting 13 24.4
2017-Sep-25 14:00 087 6 gusting 13 24.4
2017-Sep-25 13:51 083 6 gusting 13 24.4
2017-Sep-25 13:42 102 6 gusting 13 24.4
2017-Sep-25 13:33 096 6 gusting 12 24.4
2017-Sep-25 13:24 093 6 gusting 13 24.4
2017-Sep-25 13:15 095 7 gusting 13 23.9
2017-Sep-25 13:06 090 6 gusting 15 23.9
2017-Sep-25 12:57 084 6 gusting 13 23.9
2017-Sep-25 12:48 075 6 gusting 13 24.4
2017-Sep-25 12:40 090 7 gusting 13 24.4
2017-Sep-25 12:30 092 7 gusting 13 24.4
2017-Sep-25 12:21 090 6 gusting 13 23.9
2017-Sep-25 12:12 092 6 gusting 13 23.9
2017-Sep-25 12:03 096 6 gusting 13 23.3
2017-Sep-25 11:54 086 6 gusting 13 23.9
2017-Sep-25 11:45 097 6 gusting 11 23.9
2017-Sep-25 11:36 096 6 gusting 10 23.9
2017-Sep-25 11:27 087 6 gusting 12 23.9
2017-Sep-25 11:18 094 6 gusting 12 23.9
2017-Sep-25 11:09 092 6 gusting 12 23.9
2017-Sep-25 11:00 087 7 gusting 14 24.4
2017-Sep-25 10:51 090 6 gusting 13 24.4
2017-Sep-25 10:42 084 6 gusting 12 23.9
2017-Sep-25 10:33 094 7 gusting 13 23.9
2017-Sep-25 10:24 088 6 gusting 13 23.9
2017-Sep-25 10:15 084 4 gusting 9 23.9
2017-Sep-25 10:06 089 4 gusting 11 23.9
2017-Sep-25 09:57 050 4 gusting 8 23.3
2017-Sep-25 09:48 069 3 gusting 8 23.3
2017-Sep-25 09:39 048 2 gusting 6 23.3
2017-Sep-25 09:30 019 2 gusting 5 22.8
2017-Sep-25 09:21 020 2 gusting 6 22.8
2017-Sep-25 09:12 035 2 gusting 6 23.3
2017-Sep-25 09:03 033 3 gusting 6 23.3
2017-Sep-25 08:54 080 2 gusting 7 23.3
2017-Sep-25 08:45 041 1 gusting 6 22.8
2017-Sep-25 08:36 004 0 gusting 2 22.8
2017-Sep-25 08:27 004 22.2
2017-Sep-25 08:18 004 21.7
2017-Sep-25 08:09 004 21.7
2017-Sep-25 08:00 353 0 gusting 3 21.7
2017-Sep-25 07:51 314 21.7
2017-Sep-25 07:42 308 21.1
2017-Sep-25 07:33 20.6
2017-Sep-25 07:24 307 20.0
2017-Sep-25 07:15 20.0
2017-Sep-25 07:06 307 20.0
2017-Sep-25 06:57 19.4
2017-Sep-25 06:48 19.4
2017-Sep-25 06:39 19.4
2017-Sep-25 06:30 19.4
2017-Sep-25 06:21 307 19.4
2017-Sep-25 06:12 18.9
2017-Sep-25 06:03 18.9
2017-Sep-25 05:54 18.9
2017-Sep-25 05:45 18.9
2017-Sep-25 05:36 18.9
2017-Sep-25 05:27 307 0 gusting 0 19.4
2017-Sep-25 05:18 307 0 gusting 2 19.4
2017-Sep-25 05:09 307 18.9
2017-Sep-25 05:00 307 18.9
2017-Sep-25 04:51 18.9
2017-Sep-25 04:42 307 19.4
2017-Sep-25 04:33 307 0 gusting 1 19.4
2017-Sep-25 04:24 307 19.4
2017-Sep-25 04:15 18.9
2017-Sep-25 04:06 18.9
2017-Sep-25 03:57 18.9
2017-Sep-25 03:48 18.9
2017-Sep-25 03:39 18.9
2017-Sep-25 03:30 18.9
2017-Sep-25 03:21 18.9
2017-Sep-25 03:12 18.9
2017-Sep-25 03:03 307 0 gusting 3 18.9
2017-Sep-25 02:54 307 0 gusting 3 19.4
2017-Sep-25 02:45 307 19.4
2017-Sep-25 02:36 308 19.4
2017-Sep-25 02:27 19.4
2017-Sep-25 02:18 307 20.0
2017-Sep-25 02:09 307 20.0
2017-Sep-25 02:00 307 20.0
2017-Sep-25 01:51 307 20.0
2017-Sep-25 01:42 307 20.0
2017-Sep-25 01:33 307 20.0
2017-Sep-25 01:24 20.0
2017-Sep-25 01:15 307 20.0
2017-Sep-25 01:06 307 20.0
2017-Sep-25 00:57 307 20.0
2017-Sep-25 00:48 20.0
2017-Sep-25 00:39 20.0
2017-Sep-25 00:30 20.0
2017-Sep-25 00:21 20.6
2017-Sep-25 00:12 20.6
2017-Sep-25 00:03 307 20.6
2017-Sep-24 23:54 307 20.6
2017-Sep-24 23:45 307 20.6
2017-Sep-24 23:36 307 20.6
2017-Sep-24 23:27 20.6
2017-Sep-24 23:18 307 20.6
2017-Sep-24 23:09 307 0 gusting 3 20.6
2017-Sep-24 23:00 307 20.6
2017-Sep-24 22:51 307 0 gusting 0 20.6
2017-Sep-24 22:42 307 0 gusting 2 21.1
2017-Sep-24 22:33 307 20.6
2017-Sep-24 22:24 20.6
2017-Sep-24 22:15 307 20.6
2017-Sep-24 22:06 307 20.6
2017-Sep-24 21:57 307 20.6
2017-Sep-24 21:48 21.1
2017-Sep-24 21:39 307 0 gusting 0 21.1
2017-Sep-24 21:30 307 1 gusting 3 21.1
2017-Sep-24 21:21 307 0 gusting 4 20.6
2017-Sep-24 21:12 307 0 gusting 3 20.6
2017-Sep-24 21:03 307 1 gusting 4 20.6
2017-Sep-24 20:54 307 1 gusting 4 20.6
2017-Sep-24 20:45 307 0 gusting 2 21.1
2017-Sep-24 20:36 307 21.1
2017-Sep-24 20:27 307 0 gusting 2 21.7
2017-Sep-24 20:18 307 21.7
2017-Sep-24 20:09 307 0 gusting 2 21.7
2017-Sep-24 20:00 307 2 gusting 2 22.2